[[{"header":{"parameterUnit":"m.s-1","parameterCategory":1,"la1":30.2991,"la2":30.254,"lo1":-89.0895,"lo2":-89.0444,"dy":0.0017,"dx":0.0017,"nx":28,"ny":28,"refTime":"2024-08-11T03:00:00:Z","depth":0,"parameterNumber":2,"parameterNumberName":"U-component_of_WINDS"},"data":[0,0,0,0,0,0,0,0,0,0,0,0,0,0,0,0,0,0,0,0,0,0,0,0,0,0,0,0,0,0,0,0,0,0,0,0,0,0,0,0,0,0,0,0,0,0,0,0,0,0,0,0,0,0,0,0,0,0,4.2121,4.2123,0,4.2229,4.223,4.2232,4.2154,4.2151,4.2147,4.2144,4.2253,4.2259,4.2265,0,0,0,0,0,0,0,0,0,0,0,0,0,4.1846,4.1852,4.2121,4.2123,4.2124,4.2229,4.223,4.2232,4.2155,4.2151,4.2146,4.2142,4.2251,4.2258,4.2266,0,0,0,0,0,0,0,0,0,0,0,0,0,4.1961,4.1853,4.2121,4.2098,4.2097,4.2229,4.223,4.2232,4.2156,4.215,4.2145,4.214,4.2249,4.2258,4.2267,4.2426,0,0,4.2294,4.2298,0,0,0,0,0,0,0,0,4.1955,4.1971,4.21,4.21,4.2099,4.2173,4.2173,4.2297,4.2157,4.2133,4.2144,4.2138,4.223,4.2241,4.2272,4.2431,4.2436,4.2295,4.2301,4.2305,4.2307,0,0,0,0,0,0,0,4.1947,4.1966,4.2164,4.2102,4.2102,4.2082,4.2092,4.2196,4.2209,4.2135,4.213,4.2144,4.2229,4.2264,4.2274,4.2437,4.2295,4.2303,4.2309,4.2312,4.2729,4.2734,0,0,0,0,0,0,4.1941,4.196,4.216,4.2167,4.2013,4.2091,4.2103,4.2154,4.2208,4.2211,4.2148,4.214,4.225,4.2264,4.2278,4.2465,4.2305,4.2313,4.2319,4.2724,4.273,4.2736,0,0,0,0,0,0,4.1936,4.196,4.2156,4.2062,4.2086,4.2101,4.216,4.2159,4.2194,4.2218,4.2219,4.2181,4.2247,4.2265,4.2389,4.2468,4.2317,4.2326,4.2717,4.2726,4.2733,4.2843,0,0,0,0,0,0,4.1928,4.1958,4.202,4.2064,4.2091,4.2267,4.2165,4.2165,4.221,4.22,4.2249,4.2252,4.2244,4.2376,4.2398,4.2478,4.2333,4.271,4.2721,4.2731,4.2833,4.2854,4.2873,0,0,0,0,0,4.1918,4.2047,4.2023,4.2048,4.2168,4.2272,4.2287,4.2275,4.2217,4.2277,4.2293,4.2251,4.2456,4.2389,4.2414,4.2497,4.2705,4.2718,4.273,4.2824,4.285,4.2873,0,0,0,0,0,0,4.2011,4.2052,4.2026,4.2173,4.222,4.2258,4.2335,4.2304,4.2368,4.2356,4.2339,4.235,4.248,4.2501,4.2426,4.2653,4.2571,4.2589,4.2634,4.2659,4.2679,4.267,4.234,0,0,0,0,0,4.2049,4.213,4.2161,4.2287,4.2312,4.232,4.2365,4.2352,4.2399,4.2418,4.2442,4.2489,4.2563,4.2613,4.2683,4.2836,4.2844,4.2906,4.2926,4.2942,4.2957,4.3037,4.3063,4.2778,4.2777,4.2777,0,0,4.2127,4.2159,4.2212,4.2307,4.2341,4.2424,4.2337,4.2429,4.249,4.2431,4.2549,4.2569,4.262,4.2758,4.2821,4.278,4.3038,4.2958,4.2971,4.2977,4.3052,4.3079,4.3103,4.2786,4.2785,4.2783,0,0,4.2311,4.2345,4.2453,4.2489,4.2542,4.2546,4.2572,4.2615,4.2626,4.2744,4.2701,4.2773,4.2904,4.294,4.2976,4.3174,4.3136,4.3197,4.3302,4.3379,4.3402,4.3422,4.3489,4.3514,4.3213,4.3213,4.3213,0,4.2401,4.2525,4.2512,4.2607,4.2649,4.26,4.2707,4.2743,4.2816,4.2846,4.28,4.296,4.2992,4.3136,4.3184,4.3216,4.3243,4.319,4.34,4.342,4.3438,4.3502,4.3528,4.322,4.3219,4.3218,4.3218,0,4.2632,4.2719,4.2799,4.2871,4.2922,4.3023,4.3024,4.3077,4.306,4.3069,4.3188,4.3224,4.3299,4.3333,4.3318,4.3476,4.3449,4.3402,4.3319,4.3472,4.3532,4.3557,4.323,4.3227,4.3225,4.3223,0,0,4.2877,4.2939,4.2969,4.2999,4.3054,4.312,4.3218,4.3292,4.3337,4.3389,4.3469,4.358,4.3536,4.3577,4.3565,4.3634,4.3784,4.3578,4.3579,4.3613,4.3957,4.399,4.4018,4.3761,4.3765,4.3769,4.3952,0,4.3062,4.3233,4.3223,4.3383,4.3461,4.3415,4.35,4.3542,4.3553,4.362,4.3632,4.3709,4.3648,4.3671,4.3738,4.3752,4.3852,4.3739,4.3833,4.3836,4.3819,4.405,4.4086,4.4256,4.3975,4.3979,4.3982,0,4.33,4.336,4.3527,4.3568,4.36,4.3677,4.3742,4.3808,4.3854,4.3857,4.3902,4.3878,4.3976,4.3892,4.4025,4.3948,4.3986,4.3998,4.4005,4.4011,4.3917,4.406,4.4311,4.4335,4.4019,4.4016,4.4014,0,4.3458,4.3581,4.3696,4.3724,4.3775,4.3829,4.3853,4.3894,4.3938,4.3996,4.4024,4.4092,4.4129,4.4182,4.4177,4.4117,4.4311,4.4227,4.4313,4.4314,4.4354,4.4351,4.4612,4.4384,4.4384,4.4383,4.4383,0,4.3664,4.3768,4.3767,4.3838,4.3952,4.3939,4.4052,4.407,4.4106,4.4178,4.4144,4.4213,4.4203,4.4271,4.4268,4.4376,4.4394,4.4398,4.4395,4.4399,4.4398,4.4422,4.4409,4.439,4.4388,4.4387,4.4386,0,4.3859,4.3863,4.3985,4.4023,4.4035,4.4117,4.4149,4.4215,4.4223,4.4315,4.4335,4.4347,4.4426,4.4426,4.4516,4.4514,4.4646,4.4631,4.463,4.4626,4.4711,4.4702,4.4994,4.503,4.4781,4.4784,4.4786,0,4.3989,4.4067,4.4113,4.4159,4.4186,4.4261,4.4305,4.4296,4.4343,4.4401,4.446,4.4535,4.4594,4.4721,4.4737,4.4805,4.479,4.4888,4.48,4.4801,4.4788,4.4782,4.4788,4.4904,4.4907,4.4909,4.4911,0,4.4218,4.4215,4.4281,4.4348,4.4402,4.4454,4.4502,4.4541,4.4537,4.4592,4.4672,4.4718,4.4809,4.4883,4.4948,4.4971,4.494,4.4939,4.4961,4.4965,4.496,4.4961,4.4674,4.4931,4.4929,4.4928,4.4927,4.4926,4.4382,4.4448,4.449,4.4564,4.4599,4.4645,4.4708,4.4723,4.4789,4.4862,4.4853,4.4941,4.4983,4.5067,4.5096,4.5164,4.513,4.5164,4.5172,4.518,4.5188,4.4952,4.5176,4.5176,4.5175,4.5175,4.5174,0,4.4606,4.4631,4.4699,4.4767,4.4824,4.4791,4.4841,4.4892,4.4969,4.5012,4.507,4.5161,4.5232,4.5254,4.5322,4.5372,4.5359,4.539,4.5385,4.539,4.5216,4.5188,4.5399,4.5399,4.5399,4.5399,4.5399,4.5399,4.473,4.4839,4.4842,4.4968,4.4992,4.5077,4.5109,4.515,4.5183,4.5285,4.5344,4.5358,4.5391,4.5461,4.5525,4.5529,4.5555,4.5591,4.5589,4.5426,4.5403,4.5381,4.5354,4.5598,4.5598,4.5757,4.5759,4.576]},{"header":{"parameterUnit":"m.s-1","parameterCategory":1,"la1":30.2991,"la2":30.254,"lo1":-89.0895,"lo2":-89.0444,"dy":0.0017,"dx":0.0017,"nx":28,"ny":28,"refTime":"2024-08-11T03:00:00:Z","depth":0,"parameterNumber":3,"parameterNumberName":"V-component_of_WINDS"},"data":[0,0,0,0,0,0,0,0,0,0,0,0,0,0,0,0,0,0,0,0,0,0,0,0,0,0,0,0,0,0,0,0,0,0,0,0,0,0,0,0,0,0,0,0,0,0,0,0,0,0,0,0,0,0,0,0,0,0,0.9551,0.9551,0,0.9562,0.9562,0.9562,0.9531,0.953,0.9529,0.9528,0.954,0.9541,0.9542,0,0,0,0,0,0,0,0,0,0,0,0,0,0.9504,0.9505,0.9551,0.9551,0.9551,0.9562,0.9562,0.9562,0.9531,0.953,0.9529,0.9528,0.9539,0.9541,0.9542,0,0,0,0,0,0,0,0,0,0,0,0,0,0.9521,0.9505,0.9551,0.9537,0.9536,0.9562,0.9562,0.9562,0.9531,0.953,0.9529,0.9527,0.9539,0.9541,0.9543,0.9582,0,0,0.9548,0.9549,0,0,0,0,0,0,0,0,0.952,0.9522,0.9539,0.9538,0.9537,0.9544,0.9549,0.9569,0.9532,0.9533,0.9528,0.9527,0.9542,0.9544,0.9549,0.9583,0.9583,0.9548,0.9549,0.955,0.955,0,0,0,0,0,0,0,0.9518,0.9522,0.9555,0.9539,0.9538,0.953,0.9531,0.9553,0.9546,0.9533,0.9531,0.9532,0.9541,0.9547,0.9549,0.9583,0.9548,0.955,0.9551,0.9551,0.9647,0.9649,0,0,0,0,0,0,0.9519,0.9521,0.9555,0.9556,0.9525,0.9532,0.9533,0.9543,0.9545,0.9544,0.9534,0.9531,0.9545,0.9547,0.9549,0.9594,0.955,0.9552,0.9553,0.9646,0.9648,0.9649,0,0,0,0,0,0,0.9518,0.9522,0.9555,0.9538,0.9541,0.9535,0.9546,0.9544,0.955,0.9546,0.9544,0.9541,0.9544,0.9547,0.9573,0.9594,0.9552,0.9554,0.9644,0.9646,0.9649,0.9685,0,0,0,0,0,0,0.9517,0.9522,0.9538,0.9538,0.9542,0.9579,0.9547,0.9545,0.9553,0.9549,0.9552,0.9551,0.9543,0.9571,0.9575,0.9596,0.9555,0.9642,0.9645,0.9648,0.9682,0.9688,0.9693,0,0,0,0,0,0.9515,0.9548,0.9539,0.9543,0.9561,0.958,0.9582,0.9572,0.9554,0.9569,0.9567,0.9551,0.9591,0.9574,0.9579,0.96,0.9641,0.9644,0.9648,0.9679,0.9687,0.9693,0,0,0,0,0,0,0.9551,0.9548,0.9537,0.9571,0.9576,0.9575,0.9594,0.9581,0.9591,0.9587,0.9574,0.9575,0.9604,0.9605,0.9586,0.9637,0.9613,0.9617,0.9635,0.9643,0.9648,0.9647,0.9557,0,0,0,0,0,0.9563,0.9578,0.9575,0.9605,0.9608,0.9601,0.9609,0.96,0.9604,0.9607,0.9606,0.9611,0.9624,0.9634,0.9646,0.9682,0.9681,0.9698,0.9704,0.9709,0.9713,0.973,0.9737,0.966,0.966,0.966,0,0,0.9587,0.9588,0.9599,0.9612,0.9615,0.9631,0.9603,0.9622,0.9633,0.961,0.9634,0.9634,0.9639,0.9669,0.9683,0.9671,0.9734,0.9713,0.9717,0.9718,0.9734,0.9741,0.9748,0.9662,0.9662,0.9662,0,0,0.964,0.9642,0.9667,0.9669,0.9673,0.9668,0.9674,0.9674,0.9673,0.9697,0.9679,0.9693,0.9717,0.972,0.9725,0.9777,0.9763,0.9781,0.9812,0.9828,0.9834,0.984,0.9857,0.9863,0.9785,0.9785,0.9785,0,0.967,0.9694,0.9681,0.97,0.9706,0.9685,0.9708,0.9712,0.972,0.9725,0.9711,0.9739,0.9741,0.9771,0.9784,0.9789,0.9794,0.9781,0.9834,0.984,0.9844,0.986,0.9867,0.9788,0.9787,0.9787,0.9787,0,0.9729,0.9746,0.9765,0.9772,0.978,0.9802,0.9792,0.9802,0.9792,0.9788,0.9812,0.9813,0.9824,0.9831,0.9822,0.986,0.9852,0.9837,0.9812,0.9854,0.9869,0.9875,0.9791,0.979,0.9789,0.9789,0,0,0.9806,0.9804,0.9811,0.9813,0.9815,0.9828,0.9848,0.9858,0.9866,0.9872,0.9888,0.9908,0.9893,0.9898,0.9889,0.9904,0.9943,0.9887,0.9887,0.9896,0.9983,0.9993,1.0001,0.9934,0.9935,0.9936,0.9982,0,0.9856,0.989,0.9878,0.9913,0.9927,0.9906,0.9923,0.9926,0.9922,0.9933,0.9929,0.9942,0.9923,0.9925,0.9939,0.9935,0.996,0.9932,0.9947,0.9948,0.9946,1.0009,1.0021,1.0064,0.9988,0.9989,0.9989,0,0.992,0.9927,0.9962,0.996,0.9965,0.9981,0.9988,1.0,1.0002,0.9998,1.0003,0.9991,1.001,0.9985,1.001,0.9991,0.9997,0.9996,0.9997,0.9998,0.9971,1.001,1.0078,1.0084,0.9999,0.9998,0.9997,0,0.997,0.9989,1.0012,1.0014,1.0012,1.0024,1.0023,1.0024,1.003,1.0037,1.0041,1.005,1.0054,1.0061,1.0051,1.0035,1.0077,1.0053,1.0074,1.0074,1.0083,1.0083,1.0152,1.0089,1.0089,1.0088,1.0088,0,1.0027,1.005,1.0034,1.0048,1.0071,1.0058,1.0081,1.0079,1.0079,1.0092,1.0075,1.0087,1.0073,1.0084,1.0077,1.0098,1.01,1.0097,1.0095,1.0098,1.0098,1.0101,1.0097,1.009,1.009,1.0089,1.0089,0,1.0087,1.0078,1.0101,1.0097,1.0096,1.0114,1.011,1.0122,1.0116,1.0133,1.0136,1.0127,1.0139,1.0129,1.0141,1.0136,1.0163,1.0157,1.0162,1.016,1.0181,1.0179,1.0254,1.0263,1.0195,1.0195,1.0196,0,1.0124,1.014,1.0137,1.0144,1.0144,1.0156,1.0162,1.0148,1.0155,1.0157,1.0169,1.0179,1.0187,1.0206,1.0201,1.0209,1.0203,1.0228,1.0204,1.0206,1.0201,1.02,1.0201,1.0233,1.0234,1.0235,1.0235,0,1.0189,1.0183,1.0192,1.0199,1.0205,1.021,1.0214,1.0221,1.0207,1.0215,1.0226,1.0232,1.0243,1.0253,1.0259,1.0258,1.0244,1.0243,1.0248,1.0251,1.0253,1.0251,1.0175,1.0241,1.0241,1.024,1.024,1.024,1.0238,1.025,1.0249,1.0259,1.026,1.0263,1.0274,1.0269,1.0278,1.0285,1.0277,1.029,1.029,1.0297,1.0298,1.0308,1.0298,1.0305,1.0307,1.0309,1.0311,1.0252,1.031,1.0309,1.0309,1.0309,1.0309,0,1.0301,1.0299,1.0308,1.0312,1.032,1.0305,1.0308,1.0315,1.0326,1.0328,1.0334,1.0347,1.0356,1.035,1.0358,1.0367,1.036,1.0369,1.0368,1.0368,1.0321,1.0315,1.0374,1.0374,1.0374,1.0374,1.0374,1.0374,1.0335,1.0355,1.0348,1.0368,1.0366,1.0378,1.038,1.0383,1.0383,1.0397,1.0404,1.04,1.0399,1.0406,1.0413,1.0411,1.0414,1.0425,1.0421,1.0378,1.0371,1.0365,1.0359,1.0426,1.0426,1.0466,1.0466,1.0467]}]]